Terminal Aerodrome Forecast
Issued by NWS New Orleans/Baton Rouge, LA

Home | Current Version | Previous Version | Text Only | Print | Product List | Glossary On
Versions: 1 2 3 4 5 6 7 8 9 10 11 12 13
000
FTUS44 KLIX 201900 AAA
TAFBTR
TAF AMD
KBTR 201908Z 2019/2118 19005KT P6SM VCTS SCT050CB
     FM210000 20005KT P6SM SCT250
     FM211500 20004KT P6SM SCT030 SCT250=

USA.gov is the U.S. government's official web portal to all federal, state and local government web resources and services.